Flag for France Weather past 2 weeks in Gustavia, Saint Barthélemy, France

Now
82 °F

Partly sunny.


Feels Like: 88 °F
Forecast: 80 / 85 °F
Wind: 12 mph from East

Location: Juliana Airport - Saint Maarten

Current Time: May 22, 2015 at 8:32:16 AM

Latest Report: May 22, 2015 at 8:00 AM


Visibility: N/A

Pressure: 30.09 "Hg

Humidity: 74%

Dew point: 73 °F

Location of GustaviaLocation

Historic Weather in Gustavia — Graph

°F

Gustavia temperature yesterday

Maximum temperature yesterday: 86 °F (at 2:00 PM)
Minimum temperature yesterday: 81 °F (at 12:00 AM)
Average temperature yesterday: 82 °F

Past Weeks' High & Low Weather Summary

 TemperatureHumidityPressure
High86 °F (May 7, 2:00 PM)94% (May 19, 9:00 AM)30.12 "Hg (May 19, 9:00 AM)
Low75 °F (May 16, 12:00 AM)40% (May 10, 2:00 PM)29.95 "Hg (May 20, 4:00 PM)
Average82 °F70%30.05 "Hg
* Reported May 7 7:00 AM — May 22 7:00 AM, Gustavia, Weather by CustomWeather, © 2015

Note: Actual official high and low records may vary slightly from our data, if they occured in-between our weather recording intervals... More about our weather records

Advertising

Gustavia weather history for previous 24 hours

 ConditionsComfort  
Time TempWeatherWind HumidityBarometerVisibility
7:00 AM
Fri, May 22
82 °FPassing clouds.8 mph74%30.09 "HgN/A
6:00 AM81 °FPassing clouds.10 mph79%30.07 "HgN/A
5:00 AM81 °FPassing clouds.9 mph79%30.07 "HgN/A
4:00 AM81 °FPassing clouds.9 mph79%30.07 "HgN/A
2:00 AM81 °FPassing clouds.10 mph79%30.04 "HgN/A
1:00 AM81 °FPassing clouds.9 mph79%30.04 "HgN/A
11:00 PM
Thu, May 21
81 °FPassing clouds.9 mph79%30.07 "HgN/A
10:00 PM81 °FPassing clouds.8 mph79%30.07 "HgN/A
9:00 PM81 °FPassing clouds.9 mph79%30.04 "HgN/A
8:00 PM82 °FPassing clouds.9 mph79%30.04 "HgN/A
7:00 PM82 °FPassing clouds.9 mph74%30.01 "HgN/A
6:00 PM82 °FScattered clouds.9 mph74%30.01 "HgN/A
5:00 PM84 °FPassing clouds.10 mph70%29.98 "HgN/A
3:00 PM84 °FScattered clouds.9 mph70%30.01 "HgN/A
2:00 PM86 °FScattered clouds.10 mph66%30.01 "HgN/A
1:00 PM84 °FPassing clouds.8 mph70%30.04 "HgN/A
12:00 PM84 °FPassing clouds.9 mph70%30.04 "HgN/A
11:00 AM84 °FScattered clouds.13 mph70%30.04 "HgN/A
10:00 AM84 °FPassing clouds.12 mph66%30.04 "HgN/A
9:00 AM84 °FPassing clouds.9 mph66%30.04 "HgN/A
8:00 AM82 °FPassing clouds.9 mph70%30.04 "HgN/A
Weather by CustomWeather, © 2015

See weather overviewHow to use our weather pages